Time,TemperatureF,DewpointF,PressureIn,WindDirection,WindDirectionDegrees,WindSpeedMPH,WindSpeedGustMPH,Humidity,HourlyPrecipIn,Conditions,Clouds,dailyrainin,SoftwareType,DateUTC
2013-06-12 00:10:00,68.5,68.0,29.65,SW,225,0.0,-999.0,98,-99.99,,,0.00,Acu-Link.com,2013-06-12 04:10:00,
2013-06-12 00:25:00,68.2,67.6,29.66,SSW,202,0.0,-999.0,98,-99.99,,,0.00,Acu-Link.com,2013-06-12 04:25:00,
2013-06-12 00:41:00,67.6,67.1,29.65,West,270,0.0,-999.0,98,-99.99,,,0.00,Acu-Link.com,2013-06-12 04:41:00,
2013-06-12 00:56:00,67.8,67.2,29.65,West,270,2.2,-999.0,98,-99.99,,,0.00,Acu-Link.com,2013-06-12 04:56:00,
2013-06-12 01:11:00,67.6,67.1,29.65,WNW,292,0.0,-999.0,98,-99.99,,,0.00,Acu-Link.com,2013-06-12 05:11:00,
2013-06-12 01:26:00,67.3,66.7,29.65,West,270,0.0,-999.0,98,-99.99,,,0.00,Acu-Link.com,2013-06-12 05:26:00,
2013-06-12 01:41:00,67.1,66.5,29.65,SSE,157,0.0,-999.0,98,-99.99,,,0.00,Acu-Link.com,2013-06-12 05:41:00,
2013-06-12 01:57:00,66.9,66.3,29.65,WSW,247,0.0,-999.0,98,-99.99,,,0.00,Acu-Link.com,2013-06-12 05:57:00,
2013-06-12 02:12:00,66.7,66.2,29.65,NW,315,0.0,-999.0,98,-99.99,,,0.00,Acu-Link.com,2013-06-12 06:12:00,
2013-06-12 02:27:00,66.6,66.0,29.65,SW,225,0.0,-999.0,98,-99.99,,,0.00,Acu-Link.com,2013-06-12 06:27:00,
2013-06-12 02:42:00,66.7,66.2,29.64,SSW,202,0.0,-999.0,98,-99.99,,,0.00,Acu-Link.com,2013-06-12 06:42:00,
2013-06-12 02:58:00,66.6,66.0,29.64,SW,225,0.0,-999.0,98,-99.99,,,0.00,Acu-Link.com,2013-06-12 06:58:00,
2013-06-12 03:13:00,66.0,65.4,29.64,WSW,247,0.0,-999.0,98,-99.99,,,0.00,Acu-Link.com,2013-06-12 07:13:00,
2013-06-12 03:28:00,66.7,66.2,29.64,SW,225,0.0,-999.0,98,-99.99,,,0.00,Acu-Link.com,2013-06-12 07:28:00,
2013-06-12 03:43:00,66.6,66.0,29.64,West,270,1.6,-999.0,98,-99.99,,,0.00,Acu-Link.com,2013-06-12 07:43:00,
2013-06-12 03:58:00,66.7,66.2,29.64,WNW,292,4.7,-999.0,98,-99.99,,,0.00,Acu-Link.com,2013-06-12 07:58:00,
2013-06-12 04:14:00,67.3,66.7,29.65,West,270,3.1,-999.0,98,-99.99,,,0.00,Acu-Link.com,2013-06-12 08:14:00,
2013-06-12 04:29:00,66.9,66.3,29.66,West,270,3.1,-999.0,98,-99.99,,,0.00,Acu-Link.com,2013-06-12 08:29:00,
2013-06-12 04:44:00,66.6,66.0,29.67,West,270,8.9,-999.0,98,-99.99,,,0.00,Acu-Link.com,2013-06-12 08:44:00,
2013-06-12 04:59:00,66.4,65.8,29.67,WNW,292,0.0,-999.0,98,-99.99,,,0.00,Acu-Link.com,2013-06-12 08:59:00,
2013-06-12 05:14:00,65.5,64.9,29.67,SE,135,5.1,-999.0,98,-99.99,,,0.00,Acu-Link.com,2013-06-12 09:14:00,
2013-06-12 05:29:00,65.5,64.9,29.68,WNW,292,0.0,-999.0,98,-99.99,,,0.00,Acu-Link.com,2013-06-12 09:29:00,
2013-06-12 05:45:00,65.3,64.7,29.69,West,270,2.2,-999.0,98,-99.99,,,0.00,Acu-Link.com,2013-06-12 09:45:00,
2013-06-12 06:00:00,64.8,64.2,29.69,West,270,4.3,-999.0,98,-99.99,,,0.00,Acu-Link.com,2013-06-12 10:00:00,
2013-06-12 06:15:00,64.8,64.2,29.70,NNE,22,2.2,-999.0,98,-99.99,,,0.00,Acu-Link.com,2013-06-12 10:15:00,
2013-06-12 06:30:00,64.6,64.0,29.69,West,270,2.7,-999.0,98,-99.99,,,0.00,Acu-Link.com,2013-06-12 10:30:00,
2013-06-12 06:46:00,64.6,64.0,29.69,West,270,4.7,-999.0,98,-99.99,,,0.00,Acu-Link.com,2013-06-12 10:46:00,
2013-06-12 07:01:00,64.8,64.2,29.70,NW,315,1.6,-999.0,98,-99.99,,,0.00,Acu-Link.com,2013-06-12 11:01:00,
2013-06-12 07:16:00,64.8,64.2,29.71,West,270,3.8,-999.0,98,-99.99,,,0.00,Acu-Link.com,2013-06-12 11:16:00,
2013-06-12 07:31:00,65.1,64.5,29.71,West,270,1.1,-999.0,98,-99.99,,,0.00,Acu-Link.com,2013-06-12 11:31:00,
2013-06-12 07:46:00,64.6,64.0,29.71,West,270,3.1,-999.0,98,-99.99,,,0.00,Acu-Link.com,2013-06-12 11:46:00,
2013-06-12 08:02:00,65.3,64.7,29.71,South,180,3.8,-999.0,98,-99.99,,,0.00,Acu-Link.com,2013-06-12 12:02:00,
2013-06-12 08:17:00,65.7,65.1,29.71,NE,45,1.6,-999.0,98,-99.99,,,0.00,Acu-Link.com,2013-06-12 12:17:00,
2013-06-12 08:32:00,66.2,65.6,29.72,WNW,292,4.7,-999.0,98,-99.99,,,0.00,Acu-Link.com,2013-06-12 12:32:00,
2013-06-12 08:47:00,67.3,66.7,29.71,West,270,9.8,-999.0,98,-99.99,,,0.00,Acu-Link.com,2013-06-12 12:47:00,
2013-06-12 09:02:00,67.5,66.9,29.72,NE,45,3.1,-999.0,98,-99.99,,,0.00,Acu-Link.com,2013-06-12 13:02:00,
2013-06-12 09:18:00,67.5,66.9,29.72,ENE,67,3.8,-999.0,98,-99.99,,,0.00,Acu-Link.com,2013-06-12 13:18:00,
2013-06-12 09:33:00,68.5,68.0,29.73,West,270,4.7,-999.0,98,-99.99,,,0.00,Acu-Link.com,2013-06-12 13:33:00,
2013-06-12 09:48:00,69.8,69.2,29.72,West,270,5.8,-999.0,98,-99.99,,,0.00,Acu-Link.com,2013-06-12 13:48:00,
2013-06-12 10:03:00,69.1,68.5,29.72,West,270,5.8,-999.0,98,-99.99,,,0.00,Acu-Link.com,2013-06-12 14:03:00,
2013-06-12 10:19:00,70.0,69.4,29.72,South,180,0.0,-999.0,98,-99.99,,,0.00,Acu-Link.com,2013-06-12 14:19:00,
2013-06-12 10:34:00,70.7,70.1,29.73,SSE,157,4.7,-999.0,98,-99.99,,,0.00,Acu-Link.com,2013-06-12 14:34:00,
2013-06-12 10:49:00,71.2,70.6,29.73,SSW,202,1.6,-999.0,98,-99.99,,,0.00,Acu-Link.com,2013-06-12 14:49:00,
2013-06-12 11:04:00,69.6,69.0,29.73,West,270,2.7,-999.0,98,-99.99,,,0.00,Acu-Link.com,2013-06-12 15:04:00,
2013-06-12 11:20:00,70.9,70.3,29.73,SW,225,4.7,-999.0,98,-99.99,,,0.00,Acu-Link.com,2013-06-12 15:20:00,
2013-06-12 11:35:00,71.4,70.8,29.73,West,270,6.3,-999.0,98,-99.99,,,0.00,Acu-Link.com,2013-06-12 15:35:00,
2013-06-12 11:50:00,72.9,72.3,29.73,ESE,112,0.0,-999.0,98,-99.99,,,0.00,Acu-Link.com,2013-06-12 15:50:00,
2013-06-12 12:05:00,72.0,71.4,29.73,WNW,292,3.1,-999.0,98,-99.99,,,0.00,Acu-Link.com,2013-06-12 16:05:00,
2013-06-12 12:21:00,73.4,72.8,29.74,WNW,292,6.3,-999.0,98,-99.99,,,0.00,Acu-Link.com,2013-06-12 16:21:00,
2013-06-12 12:36:00,73.8,73.2,29.74,ENE,67,4.3,-999.0,98,-99.99,,,0.00,Acu-Link.com,2013-06-12 16:36:00,
2013-06-12 12:51:00,74.1,73.5,29.74,SE,135,3.1,-999.0,98,-99.99,,,0.00,Acu-Link.com,2013-06-12 16:51:00,
2013-06-12 13:06:00,74.3,73.7,29.73,ESE,112,0.0,-999.0,98,-99.99,,,0.00,Acu-Link.com,2013-06-12 17:06:00,
2013-06-12 13:21:00,74.1,73.5,29.74,SW,225,5.8,-999.0,98,-99.99,,,0.00,Acu-Link.com,2013-06-12 17:21:00,
2013-06-12 13:37:00,73.4,72.8,29.74,North,0,2.7,-999.0,98,-99.99,,,0.00,Acu-Link.com,2013-06-12 17:37:00,
2013-06-12 13:52:00,73.8,73.2,29.75,SSW,202,2.7,-999.0,98,-99.99,,,0.00,Acu-Link.com,2013-06-12 17:52:00,
2013-06-12 14:07:00,73.4,72.8,29.74,SW,225,0.0,-999.0,98,-99.99,,,0.00,Acu-Link.com,2013-06-12 18:07:00,
2013-06-12 14:22:00,73.4,72.8,29.75,SW,225,0.0,-999.0,98,-99.99,,,0.00,Acu-Link.com,2013-06-12 18:22:00,
2013-06-12 14:37:00,72.5,71.9,29.76,East,90,2.2,-999.0,98,-99.99,,,0.00,Acu-Link.com,2013-06-12 18:37:00,
2013-06-12 14:53:00,73.4,72.8,29.75,NW,315,7.4,-999.0,98,-99.99,,,0.00,Acu-Link.com,2013-06-12 18:53:00,
2013-06-12 15:08:00,72.5,71.9,29.74,ESE,112,4.7,-999.0,98,-99.99,,,0.00,Acu-Link.com,2013-06-12 19:08:00,
2013-06-12 15:23:00,74.1,73.5,29.74,West,270,2.2,-999.0,98,-99.99,,,0.00,Acu-Link.com,2013-06-12 19:23:00,
2013-06-12 15:38:00,74.3,73.1,29.74,West,270,2.7,-999.0,96,-99.99,,,0.00,Acu-Link.com,2013-06-12 19:38:00,
2013-06-12 15:53:00,73.9,71.8,29.74,West,270,4.7,-999.0,93,-99.99,,,0.00,Acu-Link.com,2013-06-12 19:53:00,
2013-06-12 16:09:00,74.5,73.6,29.75,NNE,22,3.8,-999.0,97,-99.99,,,0.00,Acu-Link.com,2013-06-12 20:09:00,
2013-06-12 16:24:00,74.5,73.3,29.74,WNW,292,2.7,-999.0,96,-99.99,,,0.00,Acu-Link.com,2013-06-12 20:24:00,
2013-06-12 16:39:00,74.5,73.3,29.74,WNW,292,2.7,-999.0,96,-99.99,,,0.00,Acu-Link.com,2013-06-12 20:39:00,
2013-06-12 16:54:00,74.5,73.3,29.74,WNW,292,2.7,-999.0,96,-99.99,,,0.00,Acu-Link.com,2013-06-12 20:54:00,
2013-06-12 17:10:00,74.5,73.3,29.75,WNW,292,2.7,-999.0,96,-99.99,,,0.00,Acu-Link.com,2013-06-12 21:10:00,
2013-06-12 17:25:00,74.5,73.3,29.75,WNW,292,2.7,-999.0,96,-99.99,,,0.00,Acu-Link.com,2013-06-12 21:25:00,
2013-06-12 17:40:00,74.5,73.3,29.75,WNW,292,2.7,-999.0,96,-99.99,,,0.00,Acu-Link.com,2013-06-12 21:40:00,
2013-06-12 17:55:00,74.5,73.9,29.75,SW,225,2.2,-999.0,98,-99.99,,,0.00,Acu-Link.com,2013-06-12 21:55:00,
2013-06-12 18:10:00,75.0,74.4,29.75,West,270,2.2,-999.0,98,-99.99,,,0.00,Acu-Link.com,2013-06-12 22:10:00,
2013-06-12 18:26:00,74.5,73.9,29.75,SSE,157,5.1,-999.0,98,-99.99,,,0.00,Acu-Link.com,2013-06-12 22:26:00,
2013-06-12 18:41:00,74.3,73.7,29.75,SW,225,2.7,-999.0,98,-99.99,,,0.00,Acu-Link.com,2013-06-12 22:41:00,
2013-06-12 18:56:00,74.3,73.7,29.75,ESE,112,1.6,-999.0,98,-99.99,,,0.00,Acu-Link.com,2013-06-12 22:56:00,
2013-06-12 19:11:00,74.3,73.7,29.75,ESE,112,3.8,-999.0,98,-99.99,,,0.00,Acu-Link.com,2013-06-12 23:11:00,
2013-06-12 19:26:00,73.9,73.3,29.76,WNW,292,0.0,-999.0,98,-99.99,,,0.00,Acu-Link.com,2013-06-12 23:26:00,
2013-06-12 19:42:00,73.6,73.0,29.76,SW,225,0.0,-999.0,98,-99.99,,,0.00,Acu-Link.com,2013-06-12 23:42:00,
2013-06-12 19:57:00,73.0,72.4,29.76,West,270,0.0,-999.0,98,-99.99,,,0.00,Acu-Link.com,2013-06-12 23:57:00,
2013-06-12 20:12:00,72.3,71.7,29.77,West,270,0.0,-999.0,98,-99.99,,,0.00,Acu-Link.com,2013-06-13 00:12:00,
2013-06-12 20:27:00,70.9,70.3,29.78,WSW,247,0.0,-999.0,98,-99.99,,,0.00,Acu-Link.com,2013-06-13 00:27:00,
2013-06-12 20:43:00,70.0,69.4,29.78,SSW,202,0.0,-999.0,98,-99.99,,,0.00,Acu-Link.com,2013-06-13 00:43:00,
2013-06-12 20:58:00,69.3,68.7,29.78,SW,225,0.0,-999.0,98,-99.99,,,0.00,Acu-Link.com,2013-06-13 00:58:00,
2013-06-12 21:13:00,68.2,67.6,29.78,SW,225,0.0,-999.0,98,-99.99,,,0.00,Acu-Link.com,2013-06-13 01:13:00,
2013-06-12 21:28:00,67.6,67.1,29.78,South,180,0.0,-999.0,98,-99.99,,,0.00,Acu-Link.com,2013-06-13 01:28:00,
2013-06-12 21:43:00,66.4,65.8,29.78,South,180,0.0,-999.0,98,-99.99,,,0.00,Acu-Link.com,2013-06-13 01:43:00,
2013-06-12 21:59:00,65.5,64.9,29.78,South,180,0.0,-999.0,98,-99.99,,,0.00,Acu-Link.com,2013-06-13 01:59:00,
2013-06-12 22:14:00,64.8,64.2,29.78,SW,225,0.0,-999.0,98,-99.99,,,0.00,Acu-Link.com,2013-06-13 02:14:00,
2013-06-12 22:29:00,64.0,63.5,29.78,South,180,0.0,-999.0,98,-99.99,,,0.00,Acu-Link.com,2013-06-13 02:29:00,
2013-06-12 22:44:00,63.5,62.9,29.77,SW,225,0.0,-999.0,98,-99.99,,,0.00,Acu-Link.com,2013-06-13 02:44:00,
2013-06-12 22:59:00,63.3,62.7,29.77,WSW,247,0.0,-999.0,98,-99.99,,,0.00,Acu-Link.com,2013-06-13 02:59:00,
2013-06-12 23:15:00,62.4,61.8,29.77,SW,225,0.0,-999.0,98,-99.99,,,0.00,Acu-Link.com,2013-06-13 03:15:00,
2013-06-12 23:30:00,62.1,61.5,29.77,SSE,157,0.0,-999.0,98,-99.99,,,0.00,Acu-Link.com,2013-06-13 03:30:00,
2013-06-12 23:45:00,62.1,61.5,29.77,SSE,157,0.0,-999.0,98,-99.99,,,0.00,Acu-Link.com,2013-06-13 03:45:00,